This is the latest recevied weather packets stored in our database for station/object KC5TIL-3. If no packets are shown the sender has not sent any weather packets the latest 10 day(s).
| Time | Temp. | Humidity | Pressure | Rain* | Wind** | Luminosity | Snow |
|---|---|---|---|---|---|---|---|
| 1787530876 | 40° C | 10% | 1008.8 hPa | 0 mm | 2.24 m/s, 213° | - | - |
| 1787530578 | 40° C | 10% | 1008.8 hPa | 0 mm | 3.58 m/s, 208° | - | - |
| 1787530277 | 40° C | 10% | 1008.8 hPa | 0 mm | 2.68 m/s, 247° | - | - |
| 1787529979 | 40.56° C | 10% | 1008.8 hPa | 0 mm | 2.24 m/s, 224° | - | - |
| 1787529681 | 40° C | 10% | 1008.8 hPa | 0 mm | 3.13 m/s, 120° | - | - |
| 1787529379 | 40° C | 10% | 1008.8 hPa | 0 mm | 3.58 m/s, 204° | - | - |
| 1787529081 | 40.56° C | 10% | 1008.8 hPa | 0 mm | 2.24 m/s, 151° | - | - |
| 1787528778 | 40° C | 10% | 1008.8 hPa | 0 mm | 2.68 m/s, 194° | - | - |
| 1787528477 | 40° C | 10% | 1008.8 hPa | 0 mm | 3.13 m/s, 150° | - | - |
| 1787528174 | 40.56° C | 10% | 1008.8 hPa | 0 mm | 2.24 m/s, 229° | - | - |
| 1787527876 | 40.56° C | 10% | 1008.8 hPa | 0 mm | 3.13 m/s, 153° | - | - |
| 1787527575 | 41.11° C | 10% | 1008.8 hPa | 0 mm | 2.24 m/s, 113° | - | - |
| 1787527277 | 41.11° C | 10% | 1008.8 hPa | 0 mm | 3.58 m/s, 187° | - | - |
| 1787526978 | 41.11° C | 10% | 1008.8 hPa | 0 mm | 2.68 m/s, 112° | - | - |
| 1787526677 | 41.11° C | 10% | 1008.8 hPa | 0 mm | 1.79 m/s, 186° | - | - |
| 1787526379 | 40.56° C | 10% | 1008.8 hPa | 0 mm | 4.02 m/s, 214° | - | - |
| 1787526081 | 41.11° C | 10% | 1008.8 hPa | 0 mm | 1.79 m/s, 209° | - | - |
| 1787525779 | 41.11° C | 10% | 1008.8 hPa | 0 mm | 2.24 m/s, 212° | - | - |
| 1787525481 | 41.11° C | 10% | 1008.8 hPa | 0 mm | 2.24 m/s, 131° | - | - |
| 1787525183 | 41.11° C | 10% | 1008.8 hPa | 0 mm | 2.24 m/s, 132° | - | - |
| 1787524882 | 41.11° C | 10% | 1008.8 hPa | 0 mm | 1.34 m/s, 219° | - | - |
| 1787524584 | 40.56° C | 10% | 1008.8 hPa | 0 mm | 0 m/s | - | - |
| 1787524285 | 40.56° C | 10% | 1008.8 hPa | 0 mm | 1.79 m/s, 128° | - | - |
| 1787523991 | 40.56° C | 10% | 1008.8 hPa | 0 mm | 1.34 m/s, 187° | - | - |
| 1787523686 | 40.56° C | 10% | 1008.8 hPa | 0 mm | 2.24 m/s, 218° | - | - |
* Rain latest hour (hover to see other rain measurements)
** Current wind speed in m/s (hover to see current wind gust speed)